This demonstration page uses our WeatherBlox Daily Observations layout. Learn more.

Hourly Observations for August 10, 2016

Temp ( °F °C ) Dew Point ( °F °C ) Humidity (%) Winds ( mph kmh ) Pressure ( in mb ) Visibility ( mi km ) Precip ( " mm )
12:15 am 00:15 Clear 73 23 68 20.1 84 84 SSE 7 11 29.83 1010 10 16.09344 0 0
12:35 am 00:35 Clear 74 23.1 69 20.3 84 84 SSE 6 9 29.83 1010 10 16.09344 0 0
12:55 am 00:55 Clear 73 23 69 20.3 85 85 SSE 5 7 29.85 1011 10 16.09344 0 0
1:15 am 01:15 Clear 73 22.7 68 20.2 86 86 S 7 11 29.88 1012 10 16.09344 0 0
1:35 am 01:35 Clear 73 22.7 68 20.1 85 85 S 6 9 29.88 1012 10 16.09344 0 0
1:55 am 01:55 Clear 73 22.7 68 20.2 86 86 S 7 11 29.83 1010 10 16.09344 0 0
2:15 am 02:15 Clear 73 22.8 68 20.2 85 85 SSE 6 9 29.83 1010 10 16.09344 0 0
2:35 am 02:35 Clear 73 22.5 68 20.1 86 86 S 7 11 29.83 1010 10 16.09344 0 0
2:55 am 02:55 Clear 72 22.3 68 20 87 87 S 5 7 29.85 1011 10 16.09344 0 0
3:15 am 03:15 Clear 72 22.2 68 20.1 88 88 S 3 6 29.85 1011 10 16.09344 0 0
3:35 am 03:35 Clear 71 21.9 68 20 89 89 S 7 11 29.85 1011 10 16.09344 0 0
3:55 am 03:55 Clear 71 21.7 68 20 90 90 SSE 6 9 29.85 1011 10 16.09344 0 0
4:15 am 04:15 Clear 71 21.7 68 20 90 90 SSE 5 7 29.85 1011 10 16.09344 0 0
4:35 am 04:35 Clear 72 22 68 20.1 89 89 S 8 13 29.85 1011 10 16.09344 0 0
4:55 am 04:55 Clear 72 22 68 20 88 88 S 7 11 29.85 1011 10 16.09344 0 0
5:15 am 05:15 Clear 71 21.8 68 20 90 90 S 7 11 29.85 1011 10 16.09344 0 0
5:35 am 05:35 Clear 71 21.5 68 19.8 90 90 SSE 6 9 29.85 1011 10 16.09344 0 0
5:55 am 05:55 Clear 70 21.1 67 19.6 91 91 SSE 5 7 29.85 1011 10 16.09344 0 0
6:15 am 06:15 Clear 70 21 67 19.6 92 92 SE 7 11 29.85 1011 10 16.09344 0 0
6:35 am 06:35 Clear 70 21 67 19.6 92 92 SSE 5 7 29.85 1011 10 16.09344 0 0
6:55 am 06:55 Sunny 70 21 67 19.5 91 91 SSE 5 7 29.85 1011 10 16.09344 0 0
7:15 am 07:15 Sunny 70 21 67 19.7 92 92 SE 6 9 29.85 1011 10 16.09344 0 0
7:35 am 07:35 Sunny 71 21.5 68 20 91 91 SE 6 9 29.85 1011 10 16.09344 0 0
7:55 am 07:55 Sunny 71 21.9 69 20.3 91 91 SE 6 9 29.85 1011 10 16.09344 0 0
8:15 am 08:15 Sunny 73 22.7 69 20.6 88 88 SSE 7 11 29.83 1010 10 16.09344 0 0
8:35 am 08:35 Sunny 73 23 70 21 89 89 SSE 8 13 29.83 1010 10 16.09344 0 0
8:55 am 08:55 Sunny 76 24.2 69 20.8 81 81 S 10 17 29.83 1010 10 16.09344 0 0
9:15 am 09:15 Sunny 78 25.4 70 21 77 77 SSE 13 20 29.83 1010 10 16.09344 0 0
9:35 am 09:35 Sunny 79 26.3 70 20.9 72 72 S 10 17 29.8 1009 10 16.09344 0 0
9:55 am 09:55 Sunny 80 26.7 69 20.6 69 69 S 12 19 29.8 1009 10 16.09344 0 0
10:15 am 10:15 Sunny 82 27.5 69 20.6 66 66 S 12 19 29.8 1009 10 16.09344 0 0
10:35 am 10:35 Sunny 82 28 69 20.8 65 65 S 12 19 29.8 1009 10 16.09344 0 0
10:55 am 10:55 Sunny 83 28.6 69 20.8 63 63 S 13 20 29.8 1009 10 16.09344 0 0
11:15 am 11:15 Sunny 82 27.8 69 20.4 64 64 S 13 20 29.8 1009 10 16.09344 0 0
11:35 am 11:35 Sunny 85 29.4 70 20.9 60 60 S 12 19 29.8 1009 10 16.09344 0 0
11:55 am 11:55 Sunny 85 29.6 69 20.3 57 57 SSE 16 26 29.8 1009 10 16.09344 0 0
12:15 pm 12:15 Sunny 86 30.1 68 20.2 55 55 S 16 26 29.77 1008 10 16.09344 0 0
12:35 pm 12:35 Sunny 87 30.3 68 20.2 55 55 S 14 22 29.77 1008 10 16.09344 0 0
12:55 pm 12:55 Sunny 87 30.7 69 20.5 55 55 S 14 22 29.74 1007 10 16.09344 0 0
1:15 pm 13:15 Sunny 89 31.4 69 20.4 52 52 S 12 19 29.74 1007 10 16.09344 0 0
1:35 pm 13:35 Sunny 89 31.5 68 19.8 50 50 S 14 22 29.74 1007 10 16.09344 0 0
1:55 pm 13:55 Sunny 90 32 67 19.6 48 48 S 17 28 29.74 1007 10 16.09344 0 0
2:15 pm 14:15 Sunny 90 32.3 67 19.4 46 46 SSE 16 26 29.74 1007 10 16.09344 0 0
2:35 pm 14:35 Sunny 91 32.5 66 18.7 44 44 S 15 24 29.74 1007 10 16.09344 0 0
2:55 pm 14:55 Partly Cloudy 91 32.9 68 20.2 47 47 SSE 13 20 29.74 1007 10 16.09344 0 0
3:15 pm 15:15 Partly Cloudy 91 32.9 68 20.1 47 47 SSE 17 28 29.74 1007 10 16.09344 0 0
3:35 pm 15:35 Partly Cloudy 91 32.9 68 19.8 46 46 SSE 16 26 29.71 1006 10 16.09344 0 0
3:55 pm 15:55 Sunny 91 32.9 68 20 47 47 SSE 17 28 29.71 1006 10 16.09344 0 0
4:15 pm 16:15 Sunny 91 33 67 19.4 45 45 S 17 28 29.71 1006 10 16.09344 0 0
4:35 pm 16:35 Sunny 92 33.1 67 19.5 45 45 SSE 17 28 29.65 1004 10 16.09344 0 0
4:55 pm 16:55 Sunny 92 33.2 66 19 43 43 S 13 20 29.65 1004 10 16.09344 0 0
5:15 pm 17:15 Sunny 92 33.1 67 19.3 44 44 SSE 17 28 29.65 1004 10 16.09344 0 0
5:35 pm 17:35 Sunny 92 33.4 67 19.6 44 44 SSE 16 26 29.65 1004 10 16.09344 0 0
5:55 pm 17:55 Sunny 91 33 67 19.7 45 45 S 13 20 29.65 1004 10 16.09344 0 0
6:15 pm 18:15 Sunny 91 33 67 19.7 45 45 S 13 20 29.65 1004 10 16.09344 0 0
6:35 pm 18:35 Sunny 91 32.5 68 20.1 48 48 S 12 19 29.68 1005 10 16.09344 0 0
6:55 pm 18:55 Sunny 90 32.2 69 20.3 49 49 S 12 19 29.65 1004 10 16.09344 0 0
7:15 pm 19:15 Sunny 89 31.7 69 20.5 51 51 SSE 10 17 29.68 1005 10 16.09344 0 0
7:35 pm 19:35 Sunny 88 31.2 69 20.8 54 54 SSE 12 19 29.65 1004 10 16.09344 0 0
7:55 pm 19:55 Sunny 87 30.5 70 21.1 57 57 SSE 10 17 29.68 1005 10 16.09344 0 0
8:15 pm 20:15 Sunny 85 29.5 70 21.2 61 61 SSE 9 15 29.65 1004 10 16.09344 0 0
8:35 pm 20:35 Sunny 83 28.6 70 21.2 64 64 SSE 9 15 29.68 1005 10 16.09344 0 0
8:55 pm 20:55 Clear 82 28 70 21.3 67 67 SE 9 15 29.71 1006 10 16.09344 0 0
9:15 pm 21:15 Clear 82 27.5 71 21.5 70 70 SE 9 15 29.71 1006 10 16.09344 0 0
9:35 pm 21:35 Clear 81 27.1 71 21.5 72 72 SE 10 17 29.71 1006 10 16.09344 0 0
9:55 pm 21:55 Clear 80 26.7 71 21.5 73 73 SE 10 17 29.71 1006 10 16.09344 0 0
10:15 pm 22:15 Clear 80 26.6 71 21.6 74 74 SSE 12 19 29.71 1006 10 16.09344 0 0
10:35 pm 22:35 Clear 80 26.5 71 21.6 75 75 SSE 10 17 29.71 1006 10 16.09344 0 0
10:55 pm 22:55 Clear 79 26 70 21.3 75 75 SSE 9 15 29.71 1006 10 16.09344 0 0
11:15 pm 23:15 Clear 78 25.8 70 21.2 76 76 SSE 10 17 29.71 1006 10 16.09344 0 0
11:35 pm 23:35 Clear 79 26 69 20.8 73 73 SSE 12 19 29.71 1006 10 16.09344 0 0
11:55 pm 23:55 Clear 79 26.2 69 20.6 71 71 SSE 12 19 29.71 1006 10 16.09344 0 0

Powered by AerisWeather